George, South Africa

12:54 AM SAST on May 26, 2017 (GMT +0200)
George

Weather History for FAGG - April, 2013

Change the Weather History Date:

Saturday, April 6, 2013

  Actual Average Record
Temperature  
Mean Temperature 62 °F -  
Max Temperature 73 °F 70 °F 91 °F (2012)
Min Temperature 51 °F 52 °F 48 °F (1997)
Degree Days  
Heating Degree Days 3    
Growing Degree Days 12 (Base 50)    
Moisture  
Dew Point 53 °F    
Average Humidity 72    
Maximum Humidity 94    
Minimum Humidity 31    
Precipitation  
Precipitation 0.00 in - - ()
Sea Level Pressure  
Sea Level Pressure 30.01 in    
Wind  
Wind Speed 4 mph ()    
Max Wind Speed 15 mph    
Max Gust Speed -    
Visibility 9.2 miles    
Events      
Averages and records for this station are not official NWS values.
T = Trace of Precipitation, MM = Missing Value Source: Averaged Metar Reports

Daily Weather History Graph

Daily Weather History Graph

Search for Another Location

Airport or City:

Trip Planner

Search our weather history database for the weather conditions in past years. The results will help you decide how hot, cold, wet, or windy it might be!

Date:

Astronomy

Apr. 06, 2013 Rise Set
Actual Time 6:46 AM SAST 6:18 PM SAST
Civil Twilight 6:21 AM SAST 6:43 PM SAST
Nautical Twilight 5:52 AM SAST 7:12 PM SAST
Astronomical Twilight 5:23 AM SAST 7:41 PM SAST
Moon 2:43 AM SAST (4/6) 3:50 PM SAST (4/6)
Length of Visible Light 12h 22m
Length of Day
11h 32m
Waning Crescent, 17% of the Moon is Illuminated
Apr 6
Waning Crescent
Apr 10
New
Apr 18
First Quarter
Apr 25
Full
May 2
Last Quarter

Hourly Weather History & Observations

Time (SAST) Temp. Dew Point Humidity Pressure Visibility Wind Dir Wind Speed Gust Speed Precip Events Conditions
12:00 AM 53.6 °F 48.2 °F 82% 30.06 in - NW 3.5 mph - N/A   Clear
1:00 AM 55.4 °F 46.4 °F 72% 30.06 in - NW 3.5 mph - N/A   Clear
2:00 AM 53 °F 46 °F 68% 30.05 in 19 mi North 3.5 mph - -  
2:00 AM 53.6 °F 44.6 °F 72% 30.04 in - North 3.5 mph - N/A   Clear
3:00 AM 53.6 °F 44.6 °F 72% 30.01 in - NNW 4.6 mph - N/A   Clear
4:00 AM 53.6 °F 44.6 °F 72% 29.98 in - Variable 1.2 mph - N/A   Clear
5:00 AM 53 °F 44 °F 64% 29.98 in 12 mi NNW 4.6 mph - -  
5:00 AM 53.6 °F 44.6 °F 72% 29.98 in - NNW 4.6 mph - N/A   Clear
6:00 AM 55.4 °F 44.6 °F 67% 29.95 in - North 3.5 mph - N/A   Clear
7:00 AM 55.4 °F 44.6 °F 67% 29.98 in - NNW 4.6 mph - N/A   Clear
8:00 AM 58 °F 48 °F 62% 30.01 in 12 mi SW 3.5 mph - -   Clear
8:00 AM 59.0 °F 48.2 °F 67% 30.01 in - SW 3.5 mph - N/A   Clear
9:00 AM 60.8 °F 53.6 °F 77% 30.01 in 6.2 mi Variable 2.3 mph - N/A   Partly Cloudy
10:00 AM 66.2 °F 53.6 °F 64% 30.01 in - North 5.8 mph - N/A   Clear
11:00 AM 72 °F 47 °F 31% 30.01 in 12 mi West 5.8 mph - -   Scattered Clouds
11:00 AM 71.6 °F 48.2 °F 43% 30.01 in - West 5.8 mph - N/A   Clear
12:00 PM 69.8 °F 50.0 °F 49% 30.01 in - Variable 2.3 mph - N/A   Clear
1:00 PM 68.0 °F 55.4 °F 64% 30.01 in - SSW 10.4 mph - N/A   Clear
2:00 PM 71 °F 61 °F 62% 29.98 in 19 mi SSW 9.2 mph - -   Scattered Clouds
2:00 PM 71.6 °F 59.0 °F 64% 29.98 in 6.2 mi SSW 9.2 mph - N/A   Partly Cloudy
3:00 PM 69.8 °F 60.8 °F 73% 29.98 in 6.2 mi SSW 12.7 mph - N/A   Scattered Clouds
4:00 PM 66.2 °F 59.0 °F 78% 30.01 in 6.2 mi SSW 15.0 mph - N/A   Mostly Cloudy
5:00 PM 64 °F 60 °F 84% 30.01 in 12 mi SSW 6.9 mph - -   Mostly Cloudy
5:00 PM 64.4 °F 60.8 °F 88% 30.01 in 6.2 mi SSW 6.9 mph - N/A   Mostly Cloudy
6:00 PM 64.4 °F 60.8 °F 88% 30.01 in 6.2 mi Variable 2.3 mph - N/A   Mostly Cloudy
7:00 PM 64.4 °F 60.8 °F 88% 30.01 in 6.2 mi SSW 4.6 mph - N/A   Mostly Cloudy
8:00 PM 63 °F 60 °F 85% 30.02 in 12 mi SSW 3.5 mph - -   Mostly Cloudy
8:00 PM 62.6 °F 59.0 °F 88% 30.01 in 6.2 mi Variable 2.3 mph - N/A   Mostly Cloudy
9:00 PM 62.6 °F 59.0 °F 88% 30.01 in 5.6 mi Variable 2.3 mph - N/A   Light Drizzle
10:00 PM 60.8 °F 59.0 °F 94% 30.01 in 6.2 mi NNW 4.6 mph - N/A   Overcast
11:00 PM 60.8 °F 57.2 °F 88% 30.01 in 6.2 mi North 4.6 mph - N/A   Overcast